CSCLB TNCM-MBPV

Flight info

Callsign CSCLB
Flight time N/A
Altitude 40000
Route MODOR2 JUICE B520 BQN DCT HARBG Y421 HAGIT
Aircraft CL60/M-SBDE1E2E3FGHIJ1J4J5J7M3RWXYZ/LB1V1D1

Departure

Time N/A
Airport Princess Juliana International Airport (TNCM)

Arrival

Time 2026-05-03 21:51
Airport Providenciales International Airport (MBPV)
Time Latitude Longitude Altitude Speed Heading
2026-05-03 20:45 18.47155 -66.27327 40023 ft 441 kts 272°
2026-05-03 20:45 18.47001 -66.33850 40021 ft 440 kts 272°
2026-05-03 20:46 18.46847 -66.40283 40019 ft 440 kts 272°
2026-05-03 20:46 18.47036 -66.46688 40013 ft 438 kts 276°
2026-05-03 20:47 18.47330 -66.53084 40009 ft 438 kts 276°
2026-05-03 20:47 18.47619 -66.59473 40009 ft 438 kts 276°
2026-05-03 20:48 18.47905 -66.65864 40008 ft 437 kts 275°
2026-05-03 20:48 18.48187 -66.72259 40008 ft 437 kts 276°
2026-05-03 20:49 18.48466 -66.78641 40009 ft 437 kts 275°
2026-05-03 20:49 18.48742 -66.85014 40013 ft 437 kts 275°
2026-05-03 20:50 18.49015 -66.91392 40008 ft 437 kts 275°
2026-05-03 20:50 18.49285 -66.97762 40012 ft 436 kts 275°
2026-05-03 20:51 18.49590 -67.04117 40014 ft 434 kts 278°
2026-05-03 20:51 18.50913 -67.10252 40013 ft 429 kts 292°
2026-05-03 20:52 18.53642 -67.15784 40011 ft 426 kts 306°
2026-05-03 20:52 18.57281 -67.20706 40013 ft 426 kts 309°
2026-05-03 20:53 18.60964 -67.25591 40007 ft 426 kts 309°
2026-05-03 20:53 18.64648 -67.30482 40009 ft 426 kts 309°
2026-05-03 20:54 18.68331 -67.35374 40005 ft 426 kts 309°
2026-05-03 20:54 18.73845 -67.42706 39999 ft 426 kts 309°
2026-05-03 20:55 18.77526 -67.47605 39999 ft 426 kts 309°
2026-05-03 20:55 18.81198 -67.52496 40000 ft 426 kts 309°
2026-05-03 20:56 18.84874 -67.57396 40003 ft 426 kts 309°
2026-05-03 20:56 18.88542 -67.62289 40000 ft 426 kts 309°
2026-05-03 20:57 18.92213 -67.67191 40004 ft 426 kts 308°
2026-05-03 20:57 18.95884 -67.72095 40004 ft 426 kts 308°
2026-05-03 20:58 18.99553 -67.77000 40008 ft 425 kts 308°
2026-05-03 20:58 19.03215 -67.81900 40007 ft 425 kts 308°
2026-05-03 20:59 19.06875 -67.86802 40005 ft 425 kts 308°
2026-05-03 20:59 19.10534 -67.91705 40010 ft 425 kts 308°
2026-05-03 21:00 19.13585 -67.95798 40009 ft 426 kts 308°
2026-05-03 21:00 19.17854 -68.01529 40008 ft 425 kts 308°
2026-05-03 21:01 19.21510 -68.06440 40009 ft 425 kts 308°
2026-05-03 21:01 19.25163 -68.11351 40008 ft 425 kts 308°
2026-05-03 21:02 19.28812 -68.16262 40006 ft 425 kts 308°
2026-05-03 21:02 19.32459 -68.21172 40008 ft 424 kts 308°
2026-05-03 21:03 19.36105 -68.26086 40007 ft 425 kts 308°
2026-05-03 21:03 19.39748 -68.30999 40006 ft 424 kts 308°
2026-05-03 21:04 19.43386 -68.35910 40006 ft 424 kts 308°
2026-05-03 21:04 19.47023 -68.40823 40004 ft 424 kts 308°
2026-05-03 21:05 19.50660 -68.45741 40007 ft 424 kts 308°
2026-05-03 21:05 19.54294 -68.50659 40004 ft 424 kts 308°
2026-05-03 21:06 19.57926 -68.55577 40005 ft 424 kts 307°
2026-05-03 21:06 19.61553 -68.60493 40007 ft 424 kts 307°
2026-05-03 21:07 19.65178 -68.65411 40007 ft 424 kts 307°
2026-05-03 21:07 19.68813 -68.70346 40005 ft 424 kts 307°
2026-05-03 21:08 19.72439 -68.75273 40005 ft 424 kts 307°
2026-05-03 21:08 19.76063 -68.80201 40004 ft 424 kts 307°
2026-05-03 21:09 19.79684 -68.85130 40008 ft 424 kts 307°
2026-05-03 21:09 19.83303 -68.90059 40009 ft 424 kts 307°
2026-05-03 21:10 19.86939 -68.94985 40008 ft 424 kts 308°
2026-05-03 21:10 19.90839 -68.99680 40008 ft 424 kts 310°
2026-05-03 21:11 19.94758 -69.04363 40007 ft 424 kts 310°
2026-05-03 21:11 19.98674 -69.09050 40008 ft 424 kts 310°
2026-05-03 21:12 20.02591 -69.13742 40007 ft 424 kts 310°
2026-05-03 21:12 20.06505 -69.18436 40004 ft 424 kts 310°
2026-05-03 21:13 20.10416 -69.23131 40004 ft 424 kts 310°
2026-05-03 21:13 20.14322 -69.27826 40005 ft 424 kts 310°
2026-05-03 21:14 20.18224 -69.32519 40003 ft 423 kts 310°
2026-05-03 21:14 20.22126 -69.37217 40004 ft 423 kts 310°
2026-05-03 21:15 20.26020 -69.41910 40001 ft 423 kts 310°
2026-05-03 21:15 20.29917 -69.46610 40002 ft 423 kts 310°
2026-05-03 21:16 20.33809 -69.51308 39998 ft 423 kts 310°
2026-05-03 21:16 20.37697 -69.56005 39996 ft 422 kts 310°
2026-05-03 21:17 20.40932 -69.59916 39998 ft 422 kts 310°
2026-05-03 21:17 20.45462 -69.65398 39995 ft 423 kts 309°
2026-05-03 21:18 20.49344 -69.70100 39995 ft 422 kts 309°
2026-05-03 21:18 20.53219 -69.74797 39994 ft 422 kts 310°
2026-05-03 21:19 20.57095 -69.79500 39992 ft 422 kts 309°
2026-05-03 21:19 20.60969 -69.84206 39991 ft 422 kts 309°
2026-05-03 21:20 20.64842 -69.88912 39992 ft 422 kts 309°
2026-05-03 21:20 20.68715 -69.93624 39990 ft 422 kts 309°
2026-05-03 21:21 20.72581 -69.98331 39990 ft 422 kts 309°
2026-05-03 21:21 20.76449 -70.03045 39988 ft 422 kts 309°
2026-05-03 21:22 20.80312 -70.07755 39988 ft 422 kts 309°
2026-05-03 21:22 20.84172 -70.12467 39988 ft 421 kts 309°
2026-05-03 21:23 20.88030 -70.17180 39989 ft 421 kts 309°
2026-05-03 21:23 20.91884 -70.21893 39988 ft 421 kts 309°
2026-05-03 21:24 20.95737 -70.26607 39989 ft 421 kts 309°
2026-05-03 21:24 20.99586 -70.31322 39990 ft 421 kts 309°
2026-05-03 21:25 21.03437 -70.36043 39992 ft 420 kts 309°
2026-05-03 21:25 21.07279 -70.40757 39990 ft 420 kts 309°
2026-05-03 21:26 21.11124 -70.45477 39989 ft 420 kts 309°
2026-05-03 21:26 21.14959 -70.50191 39991 ft 420 kts 309°
2026-05-03 21:27 21.18799 -70.54915 39993 ft 420 kts 309°
2026-05-03 21:27 21.22633 -70.59635 39956 ft 421 kts 309°
2026-05-03 21:28 21.24560 -70.62010 39497 ft 423 kts 309°
2026-05-03 21:28 21.26478 -70.64373 38976 ft 418 kts 309°
2026-05-03 21:28 21.28381 -70.66718 38464 ft 415 kts 309°
2026-05-03 21:28 21.30269 -70.69047 37987 ft 415 kts 309°
2026-05-03 21:29 21.32160 -70.71380 37440 ft 415 kts 309°
2026-05-03 21:29 21.34052 -70.73716 36899 ft 416 kts 309°
2026-05-03 21:29 21.35948 -70.76059 36356 ft 418 kts 309°
2026-05-03 21:29 21.37859 -70.78420 35789 ft 420 kts 309°
2026-05-03 21:30 21.39774 -70.80788 35234 ft 422 kts 309°
2026-05-03 21:30 21.41704 -70.83175 34674 ft 425 kts 309°
2026-05-03 21:30 21.43642 -70.85573 34111 ft 427 kts 309°
2026-05-03 21:30 21.45592 -70.87987 33541 ft 431 kts 309°
2026-05-03 21:31 21.47559 -70.90423 32971 ft 434 kts 309°
2026-05-03 21:31 21.49540 -70.92876 32409 ft 438 kts 309°
2026-05-03 21:31 21.51535 -70.95349 31811 ft 439 kts 309°
2026-05-03 21:31 21.53532 -70.97825 31230 ft 438 kts 309°
2026-05-03 21:32 21.55526 -71.00303 30650 ft 437 kts 308°
2026-05-03 21:32 21.57228 -71.02978 30062 ft 433 kts 295°
2026-05-03 21:32 21.58226 -71.05994 29460 ft 429 kts 281°
2026-05-03 21:32 21.58754 -71.09125 28851 ft 427 kts 278°
2026-05-03 21:33 21.59254 -71.12249 28309 ft 425 kts 278°
2026-05-03 21:33 21.59755 -71.15361 27742 ft 424 kts 278°
2026-05-03 21:33 21.60254 -71.18460 27187 ft 421 kts 278°
2026-05-03 21:33 21.60747 -71.21534 26632 ft 417 kts 278°
2026-05-03 21:34 21.61236 -71.24581 26096 ft 413 kts 278°
2026-05-03 21:34 21.61722 -71.27610 25542 ft 409 kts 278°
2026-05-03 21:34 21.62200 -71.30605 25002 ft 407 kts 278°
2026-05-03 21:34 21.62675 -71.33580 24467 ft 403 kts 278°
2026-05-03 21:35 21.63146 -71.36529 23938 ft 400 kts 278°
2026-05-03 21:35 21.63612 -71.39457 23408 ft 397 kts 278°
2026-05-03 21:35 21.64075 -71.42368 22886 ft 394 kts 278°
2026-05-03 21:35 21.64532 -71.45247 22365 ft 391 kts 278°
2026-05-03 21:36 21.64986 -71.48106 21853 ft 388 kts 279°
2026-05-03 21:36 21.65435 -71.50942 21345 ft 385 kts 279°
2026-05-03 21:36 21.65880 -71.53760 20834 ft 382 kts 279°
2026-05-03 21:36 21.66319 -71.56553 20334 ft 379 kts 279°
2026-05-03 21:37 21.66758 -71.59332 19827 ft 376 kts 279°
2026-05-03 21:37 21.67192 -71.62089 19338 ft 373 kts 279°
2026-05-03 21:37 21.67623 -71.64828 18838 ft 371 kts 279°
2026-05-03 21:37 21.68051 -71.67549 18347 ft 368 kts 279°
2026-05-03 21:38 21.68474 -71.70247 17868 ft 366 kts 279°
2026-05-03 21:38 21.68894 -71.72922 17381 ft 363 kts 279°
2026-05-03 21:38 21.69310 -71.75578 16915 ft 360 kts 279°
2026-05-03 21:38 21.69723 -71.78220 16428 ft 358 kts 279°
2026-05-03 21:39 21.70133 -71.80842 15959 ft 356 kts 279°
2026-05-03 21:39 21.70541 -71.83450 15486 ft 353 kts 279°
2026-05-03 21:39 21.70945 -71.86038 15024 ft 351 kts 279°
2026-05-03 21:39 21.71346 -71.88609 14560 ft 349 kts 279°
2026-05-03 21:40 21.71745 -71.91171 14097 ft 348 kts 279°
2026-05-03 21:40 21.72142 -71.93718 13638 ft 345 kts 279°
2026-05-03 21:40 21.72535 -71.96250 13186 ft 343 kts 279°
2026-05-03 21:40 21.72927 -71.98771 12723 ft 341 kts 279°
2026-05-03 21:41 21.73312 -72.01256 12284 ft 336 kts 279°
2026-05-03 21:41 21.73692 -72.03706 11855 ft 329 kts 279°
2026-05-03 21:41 21.74064 -72.06104 11414 ft 322 kts 279°
2026-05-03 21:41 21.74427 -72.08454 10998 ft 317 kts 279°
2026-05-03 21:42 21.74785 -72.10767 10561 ft 312 kts 279°
2026-05-03 21:42 21.75135 -72.13034 10170 ft 304 kts 278°
2026-05-03 21:42 21.75478 -72.15252 9775 ft 298 kts 278°
2026-05-03 21:42 21.75812 -72.17421 9376 ft 292 kts 278°
2026-05-03 21:43 21.76140 -72.19549 9000 ft 286 kts 278°
2026-05-03 21:43 21.76461 -72.21628 8634 ft 279 kts 279°
2026-05-03 21:43 21.76775 -72.23659 8272 ft 273 kts 279°
2026-05-03 21:43 21.77094 -72.25653 7906 ft 268 kts 281°
2026-05-03 21:44 21.77782 -72.27482 7558 ft 263 kts 302°
2026-05-03 21:44 21.78821 -72.29083 7200 ft 259 kts 305°
2026-05-03 21:44 21.79856 -72.30655 6874 ft 256 kts 305°
2026-05-03 21:44 21.80884 -72.32212 6525 ft 254 kts 305°
2026-05-03 21:45 21.81876 -72.33738 6189 ft 243 kts 304°
2026-05-03 21:45 21.82812 -72.35190 5883 ft 230 kts 305°
2026-05-03 21:45 21.83703 -72.36561 5587 ft 219 kts 306°
2026-05-03 21:45 21.84553 -72.37873 5310 ft 209 kts 305°
2026-05-03 21:46 21.85340 -72.39158 5021 ft 203 kts 297°
2026-05-03 21:46 21.85467 -72.40621 4639 ft 201 kts 252°
2026-05-03 21:46 21.84585 -72.41699 4239 ft 195 kts 203°
2026-05-03 21:46 21.83266 -72.41905 3856 ft 190 kts 176°
2026-05-03 21:47 21.81963 -72.41695 3505 ft 189 kts 163°
2026-05-03 21:47 21.80753 -72.41161 3216 ft 186 kts 148°
2026-05-03 21:47 21.79716 -72.40359 2861 ft 180 kts 139°
2026-05-03 21:47 21.78810 -72.39507 2495 ft 167 kts 130°
2026-05-03 21:48 21.78210 -72.38469 2062 ft 163 kts 111°
2026-05-03 21:48 21.77964 -72.37311 1687 ft 153 kts 96°
2026-05-03 21:48 21.77892 -72.36251 1565 ft 136 kts 95°
2026-05-03 21:48 21.77827 -72.35263 1383 ft 129 kts 94°
2026-05-03 21:49 21.77791 -72.34312 1181 ft 124 kts 92°
2026-05-03 21:49 21.77758 -72.33378 977 ft 126 kts 94°
2026-05-03 21:49 21.77716 -72.32445 735 ft 123 kts 95°
2026-05-03 21:49 21.77646 -72.31521 576 ft 125 kts 97°
2026-05-03 21:50 21.77586 -72.30589 469 ft 124 kts 96°
2026-05-03 21:50 21.77542 -72.29619 381 ft 133 kts 94°
2026-05-03 21:50 21.77468 -72.28664 205 ft 125 kts 94°
2026-05-03 21:50 21.77419 -72.27747 41 ft 115 kts 94°
2026-05-03 21:51 21.77394 -72.27219 33 ft 15 kts 96°
2026-05-03 21:51 21.77337 -72.27204 33 ft 9 kts 185°
2026-05-03 21:51 21.77257 -72.27209 33 ft 11 kts 183°
2026-05-03 21:51 21.77194 -72.27212 33 ft 5 kts 182°
2026-05-03 21:52 21.77163 -72.27238 33 ft 8 kts 259°
2026-05-03 21:52 21.77163 -72.27290 34 ft 5 kts 271°
2026-05-03 21:52 21.77152 -72.27325 34 ft 5 kts 210°
2026-05-03 21:52 21.77126 -72.27328 34 ft 0 kts 184°